timestamp,wind_dir_avg,wind_spd_avg,wind_spd_max_dir,wind_spd_gust,battery_voltage,lat,long
2023-05-24 00:04:00+00:00,69.0,5.28,72.0,6.14,12.97,47.59359,-54.27349
2023-05-24 00:14:00+00:00,68.0,5.94,67.0,6.58,12.49,47.59359,-54.27349
2023-05-24 00:24:00+00:00,62.0,4.32,56.0,5.59,12.49,47.59359,-54.27349
2023-05-24 00:34:00+00:00,70.0,4.03,74.0,4.64,12.49,47.59359,-54.27349
2023-05-24 00:44:00+00:00,65.0,3.47,61.0,4.0,12.49,47.59359,-54.27349
2023-05-24 00:54:00+00:00,65.0,3.91,66.0,4.36,12.49,47.59359,-54.27349
2023-05-24 01:04:00+00:00,63.0,3.82,59.0,4.66,12.49,47.59359,-54.27349
2023-05-24 01:14:00+00:00,58.0,3.88,61.0,4.43,12.33,47.59359,-54.27349
2023-05-24 01:24:00+00:00,55.0,4.33,55.0,4.8,12.33,47.59359,-54.27349
2023-05-24 01:34:00+00:00,51.0,3.91,46.0,4.57,12.33,47.59359,-54.27349
2023-05-24 01:44:00+00:00,53.0,3.97,60.0,4.6,12.33,47.59359,-54.27349
2023-05-24 01:54:00+00:00,50.0,3.77,50.0,4.41,12.33,47.59359,-54.27349
2023-05-24 02:04:00+00:00,40.0,4.09,34.0,4.9,12.33,47.59359,-54.27349
2023-05-24 02:14:00+00:00,31.0,5.07,29.0,6.16,12.33,47.59359,-54.27349
2023-05-24 02:24:00+00:00,18.0,5.12,20.0,5.91,12.33,47.59359,-54.27349
2023-05-24 02:34:00+00:00,15.0,4.39,13.0,4.94,12.33,47.59359,-54.27349
2023-05-24 02:44:00+00:00,15.0,4.24,15.0,4.52,12.33,47.59359,-54.27349
2023-05-24 02:54:00+00:00,17.0,4.49,16.0,5.31,12.33,47.59359,-54.27349
2023-05-24 03:04:00+00:00,19.0,4.93,14.0,5.28,12.33,47.59359,-54.27349
2023-05-24 03:14:00+00:00,25.0,4.75,26.0,5.28,12.33,47.59359,-54.27349
2023-05-24 03:24:00+00:00,23.0,4.66,25.0,5.14,12.33,47.59359,-54.27349
2023-05-24 03:34:00+00:00,34.0,4.82,34.0,5.29,12.33,47.59359,-54.27349
2023-05-24 03:44:00+00:00,28.0,4.68,18.0,6.24,12.33,47.59359,-54.27349
2023-05-24 03:54:00+00:00,21.0,4.09,17.0,4.57,12.33,47.59359,-54.27349
2023-05-24 04:04:00+00:00,29.0,4.46,31.0,5.24,12.33,47.59359,-54.27349
2023-05-24 04:14:00+00:00,34.0,5.64,33.0,5.95,12.25,47.59359,-54.27349
2023-05-24 04:24:00+00:00,37.0,5.37,40.0,5.7,12.25,47.59359,-54.27349
2023-05-24 04:34:00+00:00,37.0,4.93,37.0,5.3,12.25,47.59359,-54.27349
2023-05-24 04:44:00+00:00,48.0,4.66,48.0,5.41,12.25,47.59359,-54.27349
2023-05-24 04:54:00+00:00,53.0,3.73,53.0,4.27,12.25,47.59359,-54.27349
2023-05-24 05:04:00+00:00,52.0,3.89,47.0,4.26,12.25,47.59359,-54.27349
2023-05-24 05:14:00+00:00,50.0,4.07,45.0,4.54,12.25,47.59359,-54.27349
2023-05-24 05:24:00+00:00,53.0,4.1,54.0,4.48,12.25,47.59359,-54.27349
2023-05-24 05:34:00+00:00,39.0,3.65,35.0,4.01,12.25,47.59359,-54.27349
2023-05-24 05:44:00+00:00,48.0,3.58,45.0,4.05,12.25,47.59359,-54.27349
2023-05-24 05:54:00+00:00,351.0,2.76,350.0,3.08,12.25,47.59359,-54.27349
2023-05-24 06:04:00+00:00,355.0,3.23,1.0,3.59,12.25,47.59359,-54.27349
2023-05-24 06:14:00+00:00,354.0,3.46,355.0,3.93,12.17,47.59359,-54.27349
2023-05-24 06:24:00+00:00,343.0,3.59,349.0,3.93,12.17,47.59359,-54.27349
2023-05-24 06:34:00+00:00,345.0,3.98,342.0,4.48,12.17,47.59359,-54.27349
2023-05-24 06:44:00+00:00,341.0,3.25,339.0,3.58,12.17,47.59359,-54.27349
2023-05-24 06:54:00+00:00,354.0,3.3,329.0,3.7,12.17,47.59359,-54.27349
2023-05-24 07:04:00+00:00,346.0,3.43,344.0,3.96,12.17,47.59359,-54.27349
2023-05-24 07:14:00+00:00,0.0,3.08,321.0,3.87,12.17,47.59359,-54.27349
2023-05-24 07:24:00+00:00,348.0,2.85,338.0,3.21,12.17,47.59359,-54.27349
2023-05-24 07:34:00+00:00,341.0,2.65,342.0,3.2,12.17,47.59359,-54.27349
2023-05-24 07:44:00+00:00,13.0,2.69,34.0,3.51,12.17,47.59359,-54.27349
2023-05-24 07:54:00+00:00,340.0,2.22,340.0,2.7,12.17,47.59359,-54.27349
2023-05-24 08:04:00+00:00,348.0,1.5,346.0,1.82,12.17,47.59359,-54.27349
2023-05-24 08:14:01+00:00,341.0,1.83,348.0,2.04,12.17,47.59359,-54.27349
2023-05-24 08:24:01+00:00,341.0,2.59,342.0,3.09,12.17,47.59359,-54.27349
2023-05-24 08:34:01+00:00,343.0,2.11,348.0,2.39,12.17,47.59359,-54.27349
2023-05-24 08:44:01+00:00,337.0,2.23,334.0,2.57,12.17,47.59359,-54.27349
2023-05-24 08:54:01+00:00,336.0,2.19,338.0,2.5,12.17,47.59359,-54.27349
2023-05-24 09:04:01+00:00,350.0,1.45,345.0,1.71,12.17,47.59359,-54.27349
2023-05-24 09:14:00+00:00,7.0,0.76,5.0,0.88,12.65,47.59359,-54.27349
2023-05-24 09:24:00+00:00,86.0,0.79,77.0,1.0,12.65,47.59359,-54.27349
2023-05-24 09:34:00+00:00,42.0,0.85,47.0,1.06,12.65,47.59359,-54.27349
2023-05-24 09:44:00+00:00,49.0,1.04,51.0,1.29,12.65,47.59359,-54.27349
2023-05-24 09:54:00+00:00,44.0,0.67,53.0,0.86,12.65,47.59359,-54.27349
2023-05-24 10:04:00+00:00,54.0,0.39,48.0,0.51,12.65,47.59359,-54.27349
2023-05-24 10:14:00+00:00,315.0,0.63,327.0,0.82,13.44,47.59359,-54.27349
2023-05-24 10:24:00+00:00,225.0,0.36,232.0,0.71,13.44,47.59359,-54.27349
2023-05-24 10:34:00+00:00,145.0,0.56,146.0,0.74,13.44,47.59359,-54.27349
2023-05-24 10:44:00+00:00,173.0,0.57,169.0,0.69,13.44,47.59359,-54.27349
2023-05-24 10:54:00+00:00,154.0,0.86,140.0,1.13,13.44,47.59359,-54.27349
2023-05-24 11:04:00+00:00,161.0,1.49,160.0,1.74,13.44,47.59359,-54.27349
2023-05-24 11:14:00+00:00,153.0,1.4,150.0,1.57,13.53,47.59359,-54.27349
2023-05-24 11:24:00+00:00,141.0,1.65,139.0,1.9,13.53,47.59359,-54.27349
2023-05-24 11:34:00+00:00,137.0,1.76,137.0,2.06,13.53,47.59359,-54.27349
2023-05-24 11:44:00+00:00,143.0,1.23,146.0,1.51,13.53,47.59359,-54.27349
2023-05-24 11:54:00+00:00,148.0,1.12,150.0,1.32,13.53,47.59359,-54.27349
2023-05-24 12:04:00+00:00,211.0,0.61,220.0,0.87,13.53,47.59359,-54.27349
2023-05-24 12:14:00+00:00,203.0,0.69,207.0,0.99,13.92,47.59359,-54.27349
2023-05-24 12:24:00+00:00,201.0,1.19,206.0,1.39,13.92,47.59359,-54.27349
2023-05-24 12:34:00+00:00,202.0,1.87,201.0,2.09,13.92,47.59359,-54.27349
2023-05-24 12:44:00+00:00,162.0,2.24,138.0,2.86,13.92,47.59359,-54.27349
2023-05-24 12:54:00+00:00,198.0,1.8,194.0,2.05,13.92,47.59359,-54.27349
2023-05-24 13:04:00+00:00,193.0,2.04,196.0,2.27,13.92,47.59359,-54.27349
2023-05-24 13:14:00+00:00,202.0,2.05,209.0,2.23,14.32,47.59359,-54.27349
2023-05-24 13:24:00+00:00,180.0,2.2,143.0,2.96,14.32,47.59359,-54.27349
2023-05-24 13:34:00+00:00,211.0,3.5,225.0,4.31,14.32,47.59359,-54.27349
2023-05-24 13:44:00+00:00,206.0,3.91,228.0,4.54,14.32,47.59359,-54.27349
2023-05-24 13:54:00+00:00,214.0,5.78,214.0,6.05,14.32,47.59359,-54.27349
2023-05-24 14:04:00+00:00,209.0,6.08,210.0,6.55,14.32,47.59359,-54.27349
2023-05-24 14:14:00+00:00,212.0,6.83,213.0,7.07,14.4,47.59359,-54.27349
2023-05-24 14:24:00+00:00,211.0,7.39,210.0,7.92,14.4,47.59359,-54.27349
2023-05-24 14:34:00+00:00,208.0,7.37,203.0,8.13,14.4,47.59359,-54.27349
2023-05-24 14:44:00+00:00,206.0,6.71,211.0,7.3,14.4,47.59359,-54.27349
2023-05-24 14:54:00+00:00,212.0,7.84,210.0,8.83,14.4,47.59359,-54.27349
2023-05-24 15:04:00+00:00,209.0,8.08,213.0,9.33,14.4,47.59359,-54.27349
2023-05-24 15:14:00+00:00,208.0,8.02,207.0,8.88,13.68,47.59359,-54.27349
2023-05-24 15:24:00+00:00,211.0,7.96,212.0,9.23,13.68,47.59359,-54.27349
2023-05-24 15:34:00+00:00,212.0,8.92,221.0,10.13,13.68,47.59359,-54.27349
2023-05-24 15:44:00+00:00,216.0,10.06,221.0,12.14,13.68,47.59359,-54.27349
2023-05-24 15:54:00+00:00,214.0,9.22,224.0,11.09,13.68,47.59359,-54.27349
2023-05-24 16:04:00+00:00,216.0,10.14,223.0,12.01,13.68,47.59359,-54.27349
2023-05-24 16:14:00+00:00,209.0,9.42,215.0,10.96,14.4,47.59359,-54.27349
2023-05-24 16:24:00+00:00,206.0,9.75,207.0,10.61,14.4,47.59359,-54.27349
2023-05-24 16:34:00+00:00,201.0,9.44,204.0,10.66,14.4,47.59359,-54.27349
2023-05-24 16:44:00+00:00,199.0,9.22,205.0,10.23,14.4,47.59359,-54.27349
2023-05-24 16:54:00+00:00,201.0,9.1,203.0,10.09,14.4,47.59359,-54.27349
2023-05-24 17:04:00+00:00,203.0,9.84,200.0,10.58,14.4,47.59359,-54.27349
2023-05-24 17:14:00+00:00,204.0,10.11,204.0,11.51,14.32,47.59359,-54.27349
2023-05-24 17:24:00+00:00,203.0,9.72,211.0,11.04,14.32,47.59359,-54.27349
2023-05-24 17:34:00+00:00,201.0,9.48,204.0,10.75,14.32,47.59359,-54.27349
2023-05-24 17:44:00+00:00,212.0,10.27,212.0,11.65,14.32,47.59359,-54.27349
2023-05-24 17:54:00+00:00,201.0,8.68,196.0,10.28,14.32,47.59359,-54.27349
2023-05-24 18:04:00+00:00,198.0,9.14,195.0,10.54,14.32,47.59359,-54.27349
2023-05-24 18:14:00+00:00,198.0,8.18,204.0,9.21,13.76,47.59359,-54.27349
2023-05-24 18:24:00+00:00,201.0,8.56,193.0,9.61,13.76,47.59359,-54.27349
2023-05-24 18:34:00+00:00,202.0,8.63,204.0,9.86,13.76,47.59359,-54.27349
2023-05-24 18:44:00+00:00,204.0,9.0,204.0,10.05,13.76,47.59359,-54.27349
2023-05-24 18:54:00+00:00,205.0,9.08,206.0,10.04,13.76,47.59359,-54.27349
2023-05-24 19:04:00+00:00,202.0,9.19,200.0,10.02,13.76,47.59359,-54.27349
2023-05-24 19:14:00+00:00,200.0,9.1,199.0,10.36,13.68,47.59359,-54.27349
2023-05-24 19:24:00+00:00,204.0,8.89,203.0,9.98,13.68,47.59359,-54.27349
2023-05-24 19:34:00+00:00,206.0,9.09,206.0,10.14,13.68,47.59359,-54.27349
2023-05-24 19:44:00+00:00,207.0,8.94,207.0,10.09,13.68,47.59359,-54.27349
2023-05-24 19:54:00+00:00,208.0,9.54,209.0,10.66,13.68,47.59359,-54.27349
2023-05-24 20:04:00+00:00,208.0,9.11,206.0,10.56,13.68,47.59359,-54.27349
2023-05-24 20:14:01+00:00,206.0,8.66,209.0,9.68,13.68,47.59359,-54.27349
2023-05-24 20:24:01+00:00,209.0,8.97,211.0,9.98,13.68,47.59359,-54.27349
2023-05-24 20:34:01+00:00,210.0,8.46,208.0,9.79,13.68,47.59359,-54.27349
2023-05-24 20:44:01+00:00,210.0,8.84,212.0,10.04,13.68,47.59359,-54.27349
2023-05-24 20:54:01+00:00,206.0,8.07,204.0,9.09,13.68,47.59359,-54.27349
2023-05-24 21:04:01+00:00,208.0,7.9,208.0,8.7,13.68,47.59359,-54.27349
2023-05-24 21:14:00+00:00,213.0,7.91,214.0,8.74,13.68,47.59359,-54.27349
2023-05-24 21:24:00+00:00,211.0,8.56,212.0,9.23,13.68,47.59359,-54.27349
2023-05-24 21:34:00+00:00,210.0,8.49,211.0,9.53,13.68,47.59359,-54.27349
2023-05-24 21:44:00+00:00,210.0,8.12,214.0,8.88,13.68,47.59359,-54.27349
2023-05-24 21:54:00+00:00,209.0,7.57,213.0,8.34,13.68,47.59359,-54.27349
2023-05-24 22:04:00+00:00,207.0,6.99,207.0,7.53,13.68,47.59359,-54.27349
2023-05-24 22:14:00+00:00,207.0,6.67,213.0,7.22,13.44,47.59359,-54.27349
2023-05-24 22:24:00+00:00,212.0,6.01,224.0,7.04,13.44,47.59359,-54.27349
2023-05-24 22:34:00+00:00,213.0,6.99,217.0,7.49,13.44,47.59359,-54.27349
2023-05-24 22:44:00+00:00,211.0,6.67,214.0,7.23,13.44,47.59359,-54.27349
2023-05-24 22:54:00+00:00,218.0,5.64,219.0,6.17,13.44,47.59359,-54.27349
2023-05-24 23:04:00+00:00,209.0,6.18,212.0,6.68,13.44,47.59359,-54.27349
2023-05-24 23:14:00+00:00,207.0,6.02,208.0,6.49,13.05,47.59359,-54.27349
2023-05-24 23:24:00+00:00,213.0,6.2,214.0,6.69,13.05,47.59359,-54.27349
2023-05-24 23:34:00+00:00,209.0,5.74,210.0,6.12,13.05,47.59359,-54.27349
2023-05-24 23:44:00+00:00,210.0,5.99,222.0,7.1,13.05,47.59359,-54.27349
2023-05-24 23:54:00+00:00,196.0,5.48,203.0,6.31,13.05,47.59359,-54.27349
